#timestamp,LO_Frequency,Hit,StdDev 
1621962015.1,286047001.2,Y
1621962016.0,286047001.2,P
1621962035.8,286047001.6,N
1621962055.7,286047001.7,N
1621962075.5,286047003.4,N
1621962095.3,286047001.4,N
1621962115.2,286047004.2,Y
1621962135.0,286047001.6,P
1621962135.9,286047001.6,P
1621962155.7,286047001.5,P
1621962175.6,286047001.5,Y
1621962195.4,286047000.1,P
1621962215.3,286047002.7,P
1621962235.1,286047000.3,N
1621962255.8,286047000.7,N
1621962275.7,286047000.6,N
1621962295.5,286046998.6,N
1621962315.4,286047000.8,N
1621962335.2,286046998.1,N
1621962355.0,286046999.0,N
1621962355.9,286046999.0,N
1621962375.8,286047001.2,N
1621962395.6,286047001.1,N
1621962415.4,286047000.0,N
1621962435.3,286047002.8,N
1621962455.1,286047002.5,N
1621962475.9,286047002.6,N
1621962495.7,286047002.3,N
1621962515.5,286047002.1,N
1621962535.4,286047002.2,N
1621962555.2,286047002.5,N
1621962575.0,286047002.5,N
1621962575.9,286047002.5,N
1621962595.8,286047002.3,N
1621962615.6,286047002.8,N
1621962635.5,286047000.4,N
1621962655.3,286047000.4,N
1621962675.1,286047000.6,N
1621962695.9,286047000.5,N
1621962715.7,286047000.4,N
1621962735.5,286047000.6,N
1621962755.4,286047000.0,N
1621962775.2,286047002.4,N
1621962795.1,286046999.8,N
1621962796.0,286046999.8,N
1621962815.8,286047000.0,N
1621962835.6,286047001.1,N
1621962855.5,286046998.1,N
1621962875.3,286047001.2,N
1621962895.1,286046998.5,N
1621962915.9,286046999.0,N
1621962935.7,286046998.5,N
1621962955.6,286046998.4,N
1621962975.4,286046999.1,N
1621962995.2,286046999.3,N
1621963015.1,286046999.4,N
1621963016.0,286046999.4,N
1621963035.8,286046999.2,N
1621963055.7,286046997.0,N
1621963075.5,286046997.3,N
1621963095.3,286046997.7,N
1621963115.2,286046997.5,N
1621963135.0,286046997.5,N
1621963135.9,286046997.5,N
1621963155.8,286046995.3,Y
1621963175.6,286046997.3,P
1621963195.4,286046997.7,N
1621963215.3,286046997.8,N
1621963235.1,286046997.5,Y
1621963255.9,286046999.2,P
1621963275.7,286046998.7,N
1621963295.5,286046998.1,P
1621963315.4,286046998.6,Y
1621963335.2,286047000.1,P
1621963355.1,286047000.3,N
1621963356.0,286047000.3,N
1621963375.8,286047000.7,N
1621963395.6,286046998.4,N
1621963415.5,286047000.1,N
1621963435.3,286046999.8,N
1621963455.1,286047000.9,N
1621963475.9,286046998.3,N
1621963495.7,286046998.3,N
1621963515.6,286046998.7,N
1621963535.4,286047000.8,N
1621963555.2,286046998.5,N
1621963575.1,286046998.9,N
1621963576.0,286046998.9,N
1621963595.8,286046998.8,N
1621963615.6,286046998.3,N
1621963635.5,286046998.9,N
1621963655.3,286046999.0,N
1621963675.2,286046998.8,N
1621963695.9,286046996.9,Y
1621963715.7,286046998.4,P
1621963735.6,286046998.2,P
1621963755.4,286046998.5,P
1621963775.2,286047000.9,N
1621963795.1,286047000.1,N
1621963796.0,286047000.1,N
1621963815.8,286046999.7,N
1621963835.7,286047002.1,N
1621963855.5,286047002.1,N
1621963875.3,286047001.9,N
1621963895.2,286047002.5,N
1621963915.0,286046999.9,N
1621963915.9,286046999.9,N
1621963935.8,286046999.8,N
1621963955.6,286046999.9,N
1621963975.4,286047002.4,N
1621963995.3,286047001.5,N
1621964015.1,286047001.4,N
1621964035.8,286047004.0,N
1621964055.7,286047003.8,N
1621964075.5,286047003.7,N
1621964095.4,286047003.6,N
1621964115.2,286047003.8,N
1621964135.0,286047004.4,N
1621964135.9,286047004.4,N
1621964155.8,286047001.9,N
1621964175.6,286047001.9,N
1621964195.4,286047004.2,N
1621964215.3,286047002.7,N
1621964235.1,286047000.7,N
1621964255.9,286047001.2,N
1621964275.7,286047001.1,N
1621964295.5,286047000.6,N
1621964315.4,286047001.2,N
1621964335.2,286046998.2,N
1621964355.1,286046998.5,N
1621964356.0,286046998.5,N
1621964375.8,286046998.8,N
1621964395.6,286046998.5,N
1621964415.5,286046998.2,N
1621964435.3,286046998.2,N
1621964455.1,286046998.2,N
1621964475.9,286046998.7,N
1621964495.7,286046998.8,N
1621964515.6,286046998.7,N
1621964535.4,286046998.2,N
1621964555.2,286047001.1,N
1621964575.1,286047000.8,N
1621964576.0,286047000.8,N
1621964595.8,286046998.1,N
1621964615.6,286046998.4,N
1621964635.5,286046998.3,N
1621964655.3,286047000.8,N
1621964675.2,286047000.4,N
1621964695.9,286046998.3,N
1621964715.7,286046998.2,N
1621964735.6,286046998.3,N
1621964755.4,286046996.9,N
1621964775.3,286046999.4,N
1621964795.1,286046999.4,N
1621964796.0,286046999.4,N
1621964815.8,286046998.9,N
1621964835.7,286046998.7,N
1621964855.5,286046996.5,Y
1621964875.3,286046998.6,P
1621964895.2,286046999.3,P
1621964915.0,286046996.8,P
1621964915.9,286046996.8,Y
1621964935.8,286046999.4,P
1621964955.6,286046998.9,N
1621964975.4,286047000.7,N
1621964995.3,286047000.6,N
1621965015.1,286047000.6,N
1621965035.9,286047002.7,N
1621965055.7,286047002.2,N
1621965075.5,286047002.7,N
1621965095.4,286046999.9,N
1621965115.2,286047000.2,N
1621965135.0,286047000.3,N
1621965135.9,286047000.3,N
1621965155.8,286047001.1,N
1621965175.6,286047001.2,N
1621965195.5,286047000.5,N
1621965215.3,286047000.4,N
1621965235.1,286047000.3,N
1621965255.9,286047000.6,N
1621965275.7,286047001.2,N
1621965295.5,286047000.5,N
1621965315.4,286047000.5,N
1621965335.2,286046999.7,N
1621965355.1,286047000.0,N
1621965356.0,286047000.0,N
1621965375.8,286047000.0,N
1621965395.6,286047002.5,N
1621965415.5,286047002.5,N
1621965435.3,286047002.1,N
1621965455.1,286047002.5,N
1621965475.9,286046999.7,N
1621965495.7,286047002.4,N
1621965515.6,286047000.0,N
1621965535.4,286047002.5,N
1621965555.2,286047002.8,N
1621965575.1,286047002.3,N
1621965576.0,286047002.3,N
1621965595.8,286047001.9,N
